SL-14 DEB, 45267

Orbit data source: Space-Track

SL-14 DEB, 45267 is space debris in LEO originally from a launch on Thu, 15 Aug 1991 UTC launched from the Plesetsk Missile And Space Complex (PKMTR). Debris objects in space refer to the collection of defunct objects orbiting the Earth. Examples of debris include non-operational satellites, rocket bodies, and fragments generated from explosions, collisions, or faulty payload assembly.

Loading next visibility...
Identifier
45267, 1991-056D
Orbit
LEO
Country
Flag of CISCIS
Related business
Manufacturer
Unknown
Mission
Spacecraft
Bus & Motor
Unknown
Mass
Unknown
Launch date (UTC)
1991-08-15 (35 years ago)
Launch vehicle
Unknown
Launch site
Plesetsk Missile And Space Complex (PKMTR)
Object type
Payload
Rocket body
Debris
Shape & HBR
Unknown shape, 0.4 m
Radar Cross Section
Medium (>0.1 m² and <1 m²)

Expand to show TLE details & history
Last TLE update: 6 days ago

TLE from 6 days ago
0 SL-14 DEB
1 45267U 91056D   26155.31140113  .00000442  00000-0  11655-2 0  9998
2 45267  82.5659 159.3511 0014142 301.8291  58.1452 13.14137596302530
Epoch: 2026-06-04T07:28Z
TLE epoch observation values (Epoch: 2026-06-04T07:28:25.057Z)
Latitude
-0.00007°
Longitude
154.4892°
Altitude
1,204.347 km
Speed
7.255 km/s
True Right ascension
10h 37m 24s
True Declination
0° 00' 00"
Sunlit
Object was in daylight at epoch
Visualization orbit readout
Latitude
Unknown
Longitude
Unknown
Altitude
Unknown
Speed
Unknown
Apparent Right ascension
Unknown
Apparent Declination
Unknown
Sunlit
N/A
Visualization observer readout
Local Sidereal Time
06:10:12
Azimuth
Unknown
Elevation
Unknown
Doppler factor
Unknown
Orbital elements
Apogee altitude
1,215.167 km
Perigee altitude
1,193.72 km
Semi-major axis
7,582.58 km
Eccentricity
0.00141
Inclination
82.5659°
RAAN
159.3511°
Arg. of periapsis
301.8291°
True anomaly
58.28298°
Mean anomaly
58.1452°
Eccentric anomaly
58.21408°
Mean motion
3.28714 °/min
Orbital period
109.52 mins
BSTAR
0.0011655
Loading maneuver chart data...
Computing Atmospheric mass density...
Loading historical data...
Loading historical data...
Loading historical data...
Loading historical data...
Loading historical data...
Loading historical data...
Loading historical data...

Documentation

Showing up to 5 results
|